THY6TR LOWW-LTFM

Flight info

Callsign THY6TR
Flight time 1h 43m
Altitude 37000
Route ARSIN1C/29 ARSIN DCT NALOX DCT BABIT DCT ETIDA T390 RILEX
Aircraft B77W/H-SDE1E2E3FGHIJ3J4J5M1P1P2RWXYZ/LB1D1

Departure

Time 2026-04-26 19:19
Airport Vienna International Airport (LOWW)

Arrival

Time 2026-04-26 21:02
Airport İstanbul Airport (LTFM)
Time Latitude Longitude Altitude Speed Heading
2026-04-26 19:00 48.11859 16.55983 615 ft 0 kts 124°
2026-04-26 19:07 48.11865 16.55971 635 ft 4 kts 124°
2026-04-26 19:07 48.11880 16.55938 627 ft 4 kts 124°
2026-04-26 19:08 48.11893 16.55914 631 ft 4 kts 160°
2026-04-26 19:08 48.11916 16.55916 631 ft 4 kts 205°
2026-04-26 19:08 48.11937 16.55932 631 ft 1 kts 206°
2026-04-26 19:11 48.11906 16.55909 631 ft 14 kts 206°
2026-04-26 19:11 48.11787 16.55822 629 ft 19 kts 206°
2026-04-26 19:11 48.11682 16.55835 618 ft 19 kts 126°
2026-04-26 19:12 48.11599 16.56076 627 ft 28 kts 116°
2026-04-26 19:12 48.11517 16.56329 627 ft 25 kts 116°
2026-04-26 19:12 48.11438 16.56570 627 ft 28 kts 116°
2026-04-26 19:12 48.11343 16.56864 622 ft 34 kts 116°
2026-04-26 19:13 48.11246 16.57162 623 ft 29 kts 116°
2026-04-26 19:13 48.11164 16.57415 626 ft 24 kts 116°
2026-04-26 19:13 48.11101 16.57601 622 ft 14 kts 124°
2026-04-26 19:13 48.11034 16.57632 615 ft 0 kts 196°
2026-04-26 19:17 48.10954 16.57579 626 ft 19 kts 211°
2026-04-26 19:17 48.10944 16.57445 627 ft 0 kts 294°
2026-04-26 19:18 48.10945 16.57442 615 ft 5 kts 294°
2026-04-26 19:18 48.11051 16.57116 615 ft 76 kts 296°
2026-04-26 19:18 48.11403 16.56036 628 ft 153 kts 296°
2026-04-26 19:19 48.11939 16.54401 946 ft 181 kts 297°
2026-04-26 19:19 48.12469 16.52651 1732 ft 188 kts 288°
2026-04-26 19:19 48.12346 16.50677 2444 ft 203 kts 245°
2026-04-26 19:19 48.11290 16.49147 2794 ft 230 kts 203°
2026-04-26 19:20 48.09644 16.48682 3096 ft 254 kts 182°
2026-04-26 19:20 48.08454 16.48597 3555 ft 262 kts 182°
2026-04-26 19:20 48.05968 16.48396 4603 ft 272 kts 188°
2026-04-26 19:20 48.04206 16.47372 5274 ft 273 kts 218°
2026-04-26 19:21 48.02675 16.45704 6206 ft 272 kts 219°
2026-04-26 19:21 48.01121 16.44134 7269 ft 270 kts 219°
2026-04-26 19:21 47.99525 16.42613 8079 ft 276 kts 212°
2026-04-26 19:21 47.97603 16.41970 8702 ft 297 kts 179°
2026-04-26 19:22 47.95550 16.42552 9477 ft 304 kts 170°
2026-04-26 19:22 47.93476 16.43334 10262 ft 310 kts 165°
2026-04-26 19:22 47.91434 16.44688 10624 ft 335 kts 153°
2026-04-26 19:22 47.89339 16.46537 10821 ft 365 kts 149°
2026-04-26 19:23 47.87110 16.48628 11153 ft 388 kts 149°
2026-04-26 19:23 47.84816 16.50770 11929 ft 398 kts 149°
2026-04-26 19:23 47.82435 16.52946 12946 ft 404 kts 150°
2026-04-26 19:23 47.80013 16.55115 14047 ft 408 kts 150°
2026-04-26 19:24 47.77550 16.57287 14998 ft 413 kts 150°
2026-04-26 19:24 47.75132 16.59647 15982 ft 418 kts 143°
2026-04-26 19:24 47.70725 16.65428 17943 ft 427 kts 137°
2026-04-26 19:25 47.68522 16.68424 18857 ft 432 kts 138°
2026-04-26 19:25 47.67046 16.70426 19407 ft 435 kts 138°
2026-04-26 19:25 47.64030 16.74496 20547 ft 441 kts 139°
2026-04-26 19:25 47.61777 16.77523 21374 ft 445 kts 139°
2026-04-26 19:26 47.59462 16.80619 22194 ft 449 kts 139°
2026-04-26 19:26 47.57128 16.83733 22997 ft 454 kts 140°
2026-04-26 19:26 47.54763 16.86880 23782 ft 459 kts 140°
2026-04-26 19:26 47.52369 16.90061 24419 ft 463 kts 140°
2026-04-26 19:27 47.49952 16.93265 25007 ft 470 kts 140°
2026-04-26 19:27 47.47498 16.96514 25508 ft 477 kts 140°
2026-04-26 19:27 47.45007 16.99810 26080 ft 481 kts 140°
2026-04-26 19:27 47.42529 17.03084 26685 ft 485 kts 140°
2026-04-26 19:28 47.39999 17.06422 27265 ft 489 kts 140°
2026-04-26 19:28 47.37443 17.09791 27803 ft 494 kts 140°
2026-04-26 19:28 47.34860 17.13191 28308 ft 499 kts 140°
2026-04-26 19:28 47.32258 17.16612 28831 ft 503 kts 140°
2026-04-26 19:29 47.29633 17.20059 29340 ft 507 kts 140°
2026-04-26 19:29 47.26991 17.23522 29807 ft 512 kts 140°
2026-04-26 19:29 47.24317 17.27022 30229 ft 516 kts 140°
2026-04-26 19:29 47.21624 17.30543 30597 ft 519 kts 140°
2026-04-26 19:30 47.18918 17.34076 31072 ft 519 kts 140°
2026-04-26 19:30 47.16224 17.37590 31666 ft 516 kts 140°
2026-04-26 19:30 47.13547 17.41078 32266 ft 513 kts 140°
2026-04-26 19:30 47.11779 17.43378 32633 ft 512 kts 140°
2026-04-26 19:31 47.08249 17.47961 33322 ft 510 kts 140°
2026-04-26 19:31 47.05592 17.51405 33947 ft 506 kts 140°
2026-04-26 19:31 47.02938 17.54840 34343 ft 507 kts 140°
2026-04-26 19:31 47.00298 17.58249 34721 ft 507 kts 140°
2026-04-26 19:32 46.97662 17.61651 35172 ft 505 kts 141°
2026-04-26 19:32 46.95025 17.65051 35638 ft 503 kts 141°
2026-04-26 19:32 46.92438 17.68383 36093 ft 500 kts 141°
2026-04-26 19:32 46.89820 17.71750 36507 ft 499 kts 141°
2026-04-26 19:33 46.87215 17.75096 36894 ft 498 kts 141°
2026-04-26 19:33 46.84604 17.78443 37179 ft 499 kts 141°
2026-04-26 19:33 46.79361 17.85148 37231 ft 500 kts 141°
2026-04-26 19:34 46.74148 17.91804 37219 ft 494 kts 142°
2026-04-26 19:34 46.68979 17.98385 37234 ft 493 kts 141°
2026-04-26 19:35 46.63900 18.04835 37228 ft 493 kts 142°
2026-04-26 19:35 46.58729 18.11379 37235 ft 493 kts 141°
2026-04-26 19:36 46.55284 18.15728 37210 ft 494 kts 142°
2026-04-26 19:36 46.48357 18.24457 37228 ft 495 kts 142°
2026-04-26 19:37 46.43144 18.31008 37226 ft 496 kts 142°
2026-04-26 19:37 46.37927 18.37545 37231 ft 496 kts 142°
2026-04-26 19:38 46.32694 18.44083 37220 ft 496 kts 142°
2026-04-26 19:38 46.27463 18.50597 37206 ft 496 kts 142°
2026-04-26 19:39 46.22256 18.57074 37219 ft 495 kts 142°
2026-04-26 19:39 46.17030 18.63557 37214 ft 494 kts 142°
2026-04-26 19:40 46.11811 18.70012 37213 ft 494 kts 142°
2026-04-26 19:40 46.06588 18.76454 37212 ft 493 kts 142°
2026-04-26 19:41 46.01403 18.82839 37199 ft 493 kts 142°
2026-04-26 19:41 45.97934 18.87098 37216 ft 493 kts 142°
2026-04-26 19:42 45.91215 18.95963 37193 ft 494 kts 133°
2026-04-26 19:42 45.86791 19.03306 37208 ft 495 kts 132°
2026-04-26 19:43 45.82331 19.10765 37212 ft 495 kts 133°
2026-04-26 19:43 45.77823 19.18220 37209 ft 495 kts 133°
2026-04-26 19:44 45.73287 19.25658 37190 ft 496 kts 133°
2026-04-26 19:44 45.69510 19.31823 37210 ft 496 kts 133°
2026-04-26 19:45 45.64959 19.39239 37209 ft 496 kts 133°
2026-04-26 19:45 45.59656 19.47856 37205 ft 496 kts 133°
2026-04-26 19:46 45.55837 19.54045 37203 ft 496 kts 133°
2026-04-26 19:46 45.51295 19.61388 37203 ft 495 kts 133°
2026-04-26 19:47 45.47492 19.67520 37206 ft 495 kts 133°
2026-04-26 19:47 45.42159 19.76101 37208 ft 495 kts 133°
2026-04-26 19:48 45.37614 19.83395 37198 ft 495 kts 133°
2026-04-26 19:48 45.33035 19.90719 37196 ft 495 kts 133°
2026-04-26 19:49 45.28449 19.98036 37202 ft 495 kts 133°
2026-04-26 19:49 45.23946 20.05198 37198 ft 495 kts 133°
2026-04-26 19:50 45.19369 20.12466 37195 ft 495 kts 133°
2026-04-26 19:50 45.14775 20.19743 37188 ft 495 kts 133°
2026-04-26 19:51 45.10177 20.27001 37190 ft 495 kts 133°
2026-04-26 19:51 45.05575 20.34251 37196 ft 495 kts 134°
2026-04-26 19:52 45.00968 20.41488 37192 ft 495 kts 134°
2026-04-26 19:52 44.96399 20.48647 37207 ft 495 kts 134°
2026-04-26 19:53 44.91778 20.55866 37200 ft 496 kts 134°
2026-04-26 19:53 44.87143 20.63089 37190 ft 496 kts 134°
2026-04-26 19:54 44.82504 20.70302 37184 ft 497 kts 134°
2026-04-26 19:54 44.77852 20.77516 37181 ft 497 kts 134°
2026-04-26 19:55 44.73222 20.84678 37182 ft 497 kts 134°
2026-04-26 19:55 44.68563 20.91865 37176 ft 497 kts 134°
2026-04-26 19:56 44.63901 20.99040 37173 ft 496 kts 134°
2026-04-26 19:56 44.59333 21.06049 37170 ft 495 kts 134°
2026-04-26 19:57 44.54684 21.13168 37161 ft 494 kts 134°
2026-04-26 19:57 44.50064 21.20223 37168 ft 493 kts 134°
2026-04-26 19:58 44.45416 21.27299 37170 ft 493 kts 134°
2026-04-26 19:58 44.40760 21.34373 37164 ft 494 kts 134°
2026-04-26 19:59 44.36094 21.41446 37162 ft 494 kts 134°
2026-04-26 19:59 44.31458 21.48454 37165 ft 494 kts 134°
2026-04-26 20:00 44.26782 21.55506 37164 ft 494 kts 134°
2026-04-26 20:00 44.22108 21.62536 37161 ft 494 kts 134°
2026-04-26 20:01 44.17431 21.69554 37168 ft 493 kts 134°
2026-04-26 20:01 44.12764 21.76541 37154 ft 492 kts 134°
2026-04-26 20:02 44.08126 21.83465 37150 ft 490 kts 134°
2026-04-26 20:02 44.04254 21.89232 37152 ft 489 kts 134°
2026-04-26 20:03 43.98860 21.97245 37139 ft 489 kts 134°
2026-04-26 20:03 43.94275 22.04040 37145 ft 490 kts 134°
2026-04-26 20:04 43.89608 22.10940 37149 ft 491 kts 135°
2026-04-26 20:04 43.84926 22.17847 37138 ft 492 kts 135°
2026-04-26 20:05 43.80224 22.24764 37139 ft 493 kts 135°
2026-04-26 20:05 43.75514 22.31682 37142 ft 494 kts 135°
2026-04-26 20:06 43.70845 22.38595 37133 ft 495 kts 131°
2026-04-26 20:06 43.66869 22.46342 37147 ft 495 kts 120°
2026-04-26 20:07 43.63723 22.54816 37143 ft 496 kts 117°
2026-04-26 20:07 43.60651 22.63354 37133 ft 496 kts 117°
2026-04-26 20:08 43.57549 22.71861 37138 ft 496 kts 117°
2026-04-26 20:08 43.54434 22.80303 37133 ft 497 kts 118°
2026-04-26 20:09 43.51283 22.88787 37133 ft 498 kts 118°
2026-04-26 20:09 43.48118 22.97290 37137 ft 498 kts 118°
2026-04-26 20:10 43.45003 23.05638 37126 ft 499 kts 118°
2026-04-26 20:10 43.41818 23.14150 37127 ft 500 kts 118°
2026-04-26 20:11 43.38645 23.22604 37122 ft 501 kts 118°
2026-04-26 20:12 43.33842 23.35355 37116 ft 501 kts 118°
2026-04-26 20:12 43.30624 23.43861 37110 ft 500 kts 118°
2026-04-26 20:13 43.27418 23.52311 37118 ft 498 kts 118°
2026-04-26 20:13 43.24230 23.60695 37115 ft 498 kts 118°
2026-04-26 20:14 43.21019 23.69111 37100 ft 497 kts 118°
2026-04-26 20:14 43.17810 23.77495 37096 ft 496 kts 118°
2026-04-26 20:15 43.14598 23.85867 37094 ft 496 kts 118°
2026-04-26 20:15 43.11392 23.94187 37102 ft 496 kts 118°
2026-04-26 20:16 43.08224 24.02391 37090 ft 497 kts 118°
2026-04-26 20:16 43.04985 24.10761 37096 ft 498 kts 118°
2026-04-26 20:17 43.01732 24.19130 37085 ft 499 kts 118°
2026-04-26 20:17 42.98503 24.27420 37086 ft 499 kts 118°
2026-04-26 20:18 42.95231 24.35796 37077 ft 500 kts 118°
2026-04-26 20:18 42.91951 24.44174 37076 ft 500 kts 118°
2026-04-26 20:19 42.88671 24.52525 37062 ft 499 kts 118°
2026-04-26 20:19 42.85391 24.60853 37055 ft 497 kts 118°
2026-04-26 20:20 42.82131 24.69101 37045 ft 496 kts 118°
2026-04-26 20:20 42.78854 24.77371 37044 ft 496 kts 118°
2026-04-26 20:21 42.75574 24.85632 37049 ft 496 kts 118°
2026-04-26 20:21 42.72280 24.93907 37046 ft 498 kts 118°
2026-04-26 20:22 42.69033 25.02043 37037 ft 499 kts 118°
2026-04-26 20:22 42.65716 25.10322 37031 ft 499 kts 118°
2026-04-26 20:23 42.62397 25.18592 37024 ft 499 kts 118°
2026-04-26 20:23 42.59085 25.26813 37038 ft 498 kts 118°
2026-04-26 20:24 42.55755 25.35059 37027 ft 499 kts 119°
2026-04-26 20:24 42.52418 25.43294 37021 ft 498 kts 118°
2026-04-26 20:25 42.49085 25.51507 37015 ft 496 kts 119°
2026-04-26 20:25 42.45756 25.59673 37012 ft 494 kts 119°
2026-04-26 20:26 42.42434 25.67812 37016 ft 493 kts 119°
2026-04-26 20:26 42.39110 25.75930 37009 ft 492 kts 119°
2026-04-26 20:27 42.35789 25.84013 37007 ft 492 kts 118°
2026-04-26 20:27 42.32477 25.92058 37016 ft 493 kts 118°
2026-04-26 20:28 42.29155 26.00105 37020 ft 495 kts 118°
2026-04-26 20:28 42.25813 26.08177 36574 ft 503 kts 118°
2026-04-26 20:28 42.24088 26.12334 35851 ft 506 kts 118°
2026-04-26 20:29 42.22388 26.16420 35166 ft 504 kts 118°
2026-04-26 20:29 42.20682 26.20517 34660 ft 498 kts 118°
2026-04-26 20:29 42.18990 26.24573 34126 ft 493 kts 118°
2026-04-26 20:29 42.17312 26.28587 33542 ft 488 kts 118°
2026-04-26 20:30 42.15643 26.32576 32990 ft 483 kts 118°
2026-04-26 20:30 42.14002 26.36497 32476 ft 478 kts 118°
2026-04-26 20:30 42.12374 26.40379 31962 ft 474 kts 118°
2026-04-26 20:30 42.10778 26.44185 31442 ft 469 kts 117°
2026-04-26 20:31 42.09697 26.46760 31116 ft 466 kts 117°
2026-04-26 20:31 42.07591 26.51768 30458 ft 461 kts 117°
2026-04-26 20:31 42.06017 26.55507 29941 ft 458 kts 117°
2026-04-26 20:31 42.04453 26.59217 29364 ft 454 kts 117°
2026-04-26 20:32 42.02900 26.62893 28851 ft 450 kts 117°
2026-04-26 20:32 42.01860 26.65354 28505 ft 446 kts 117°
2026-04-26 20:32 42.00334 26.68965 28017 ft 442 kts 117°
2026-04-26 20:32 41.98844 26.72485 27515 ft 437 kts 117°
2026-04-26 20:33 41.97344 26.76020 27029 ft 434 kts 117°
2026-04-26 20:33 41.95826 26.79507 26580 ft 430 kts 119°
2026-04-26 20:33 41.94279 26.82921 26146 ft 425 kts 119°
2026-04-26 20:33 41.92737 26.86301 25709 ft 421 kts 119°
2026-04-26 20:34 41.91221 26.89640 25278 ft 417 kts 119°
2026-04-26 20:34 41.89721 26.92956 24865 ft 413 kts 119°
2026-04-26 20:34 41.88253 26.96194 24453 ft 410 kts 119°
2026-04-26 20:34 41.86769 26.99459 24035 ft 407 kts 120°
2026-04-26 20:35 41.85345 27.02588 23636 ft 406 kts 119°
2026-04-26 20:35 41.83873 27.05821 23146 ft 405 kts 120°
2026-04-26 20:35 41.82404 27.09042 22695 ft 402 kts 120°
2026-04-26 20:35 41.80821 27.12096 22257 ft 397 kts 131°
2026-04-26 20:36 41.78709 27.14360 21879 ft 392 kts 146°
2026-04-26 20:36 41.76401 27.16359 21484 ft 398 kts 146°
2026-04-26 20:36 41.74077 27.18428 21069 ft 400 kts 145°
2026-04-26 20:36 41.71786 27.20524 20643 ft 397 kts 145°
2026-04-26 20:37 41.69523 27.22613 20245 ft 393 kts 145°
2026-04-26 20:37 41.67279 27.24689 19836 ft 390 kts 145°
2026-04-26 20:37 41.65059 27.26738 19437 ft 386 kts 145°
2026-04-26 20:37 41.62904 27.28833 19017 ft 379 kts 137°
2026-04-26 20:38 41.61318 27.31606 18650 ft 377 kts 114°
2026-04-26 20:38 41.60567 27.34950 18280 ft 377 kts 94°
2026-04-26 20:38 41.60656 27.38434 17853 ft 376 kts 77°
2026-04-26 20:38 41.61442 27.41691 17436 ft 370 kts 59°
2026-04-26 20:39 41.62858 27.44541 17065 ft 365 kts 51°
2026-04-26 20:39 41.64350 27.47285 16688 ft 364 kts 52°
2026-04-26 20:39 41.65814 27.50048 16319 ft 363 kts 52°
2026-04-26 20:39 41.67256 27.52812 15932 ft 361 kts 53°
2026-04-26 20:40 41.68677 27.55572 15570 ft 360 kts 53°
2026-04-26 20:40 41.70092 27.58328 15192 ft 357 kts 53°
2026-04-26 20:40 41.71487 27.61045 14814 ft 352 kts 53°
2026-04-26 20:40 41.72868 27.63741 14469 ft 349 kts 53°
2026-04-26 20:41 41.74224 27.66385 14126 ft 348 kts 54°
2026-04-26 20:41 41.75493 27.69171 13961 ft 345 kts 60°
2026-04-26 20:41 41.76598 27.71998 13824 ft 349 kts 61°
2026-04-26 20:41 41.77716 27.74906 13701 ft 353 kts 60°
2026-04-26 20:42 41.78749 27.77873 13543 ft 351 kts 72°
2026-04-26 20:42 41.79032 27.81128 13430 ft 355 kts 94°
2026-04-26 20:42 41.78530 27.84371 13329 ft 357 kts 105°
2026-04-26 20:42 41.77842 27.87590 13180 ft 360 kts 105°
2026-04-26 20:43 41.77169 27.90815 13048 ft 357 kts 104°
2026-04-26 20:43 41.76523 27.94005 12916 ft 353 kts 104°
2026-04-26 20:43 41.75935 27.97191 12777 ft 349 kts 98°
2026-04-26 20:43 41.75723 28.00327 12673 ft 350 kts 91°
2026-04-26 20:44 41.75682 28.03591 12565 ft 348 kts 89°
2026-04-26 20:44 41.75654 28.06798 12417 ft 339 kts 90°
2026-04-26 20:44 41.75595 28.09867 12282 ft 329 kts 90°
2026-04-26 20:44 41.75509 28.12886 12154 ft 320 kts 91°
2026-04-26 20:45 41.75416 28.15814 12038 ft 310 kts 91°
2026-04-26 20:45 41.75439 28.18624 11843 ft 294 kts 77°
2026-04-26 20:45 41.75980 28.21204 11600 ft 284 kts 69°
2026-04-26 20:45 41.76587 28.23710 11330 ft 282 kts 70°
2026-04-26 20:46 41.77183 28.26204 11051 ft 280 kts 70°
2026-04-26 20:46 41.77769 28.28693 10781 ft 279 kts 70°
2026-04-26 20:46 41.78342 28.31151 10511 ft 279 kts 70°
2026-04-26 20:46 41.78918 28.33637 10233 ft 279 kts 70°
2026-04-26 20:47 41.79490 28.36125 9949 ft 280 kts 70°
2026-04-26 20:47 41.79869 28.37777 9767 ft 279 kts 70°
2026-04-26 20:47 41.80628 28.41100 9372 ft 278 kts 70°
2026-04-26 20:47 41.81190 28.43577 9069 ft 276 kts 70°
2026-04-26 20:48 41.81746 28.46027 8804 ft 273 kts 70°
2026-04-26 20:48 41.82296 28.48444 8535 ft 270 kts 70°
2026-04-26 20:48 41.82840 28.50837 8262 ft 267 kts 70°
2026-04-26 20:48 41.83378 28.53208 7996 ft 264 kts 70°
2026-04-26 20:49 41.83892 28.55490 7940 ft 255 kts 70°
2026-04-26 20:49 41.84408 28.57776 7871 ft 259 kts 70°
2026-04-26 20:49 41.84941 28.60126 7807 ft 266 kts 70°
2026-04-26 20:49 41.85478 28.62509 7722 ft 267 kts 70°
2026-04-26 20:50 41.86014 28.64894 7644 ft 267 kts 70°
2026-04-26 20:50 41.86550 28.67277 7572 ft 267 kts 69°
2026-04-26 20:50 41.87086 28.69659 7504 ft 266 kts 68°
2026-04-26 20:50 41.87495 28.72056 7403 ft 264 kts 87°
2026-04-26 20:51 41.87048 28.74454 7356 ft 270 kts 119°
2026-04-26 20:51 41.85871 28.76450 7297 ft 277 kts 133°
2026-04-26 20:51 41.84549 28.78376 7219 ft 281 kts 132°
2026-04-26 20:51 41.83238 28.80304 7131 ft 278 kts 132°
2026-04-26 20:52 41.81945 28.82212 7051 ft 273 kts 132°
2026-04-26 20:52 41.80542 28.83855 6938 ft 267 kts 155°
2026-04-26 20:52 41.78797 28.84621 6998 ft 267 kts 165°
2026-04-26 20:52 41.76981 28.85327 6990 ft 275 kts 165°
2026-04-26 20:53 41.75137 28.86061 6991 ft 276 kts 165°
2026-04-26 20:53 41.73302 28.86738 6974 ft 268 kts 174°
2026-04-26 20:53 41.71520 28.86530 6921 ft 259 kts 202°
2026-04-26 20:53 41.69917 28.85459 6570 ft 257 kts 213°
2026-04-26 20:54 41.68415 28.84204 6237 ft 251 kts 226°
2026-04-26 20:54 41.67493 28.82339 5946 ft 237 kts 257°
2026-04-26 20:54 41.67241 28.80216 5685 ft 229 kts 272°
2026-04-26 20:54 41.67233 28.78084 5427 ft 229 kts 274°
2026-04-26 20:55 41.67251 28.75946 5166 ft 230 kts 275°
2026-04-26 20:55 41.67074 28.73839 4860 ft 232 kts 250°
2026-04-26 20:55 41.66033 28.72178 4600 ft 241 kts 214°
2026-04-26 20:55 41.64419 28.71458 4360 ft 249 kts 190°
2026-04-26 20:56 41.62668 28.71177 4065 ft 257 kts 189°
2026-04-26 20:56 41.60877 28.70896 3765 ft 260 kts 189°
2026-04-26 20:56 41.59077 28.70610 3451 ft 261 kts 189°
2026-04-26 20:56 41.57300 28.70326 3189 ft 260 kts 189°
2026-04-26 20:57 41.55529 28.70088 3066 ft 251 kts 184°
2026-04-26 20:57 41.53809 28.70089 2976 ft 240 kts 181°
2026-04-26 20:57 41.52186 28.70133 2965 ft 232 kts 180°
2026-04-26 20:57 41.50564 28.70174 2982 ft 233 kts 181°
2026-04-26 20:58 41.48942 28.70214 2976 ft 232 kts 181°
2026-04-26 20:58 41.47342 28.70254 2973 ft 226 kts 181°
2026-04-26 20:58 41.45831 28.70292 3014 ft 215 kts 181°
2026-04-26 20:58 41.44353 28.70325 2975 ft 210 kts 182°
2026-04-26 20:59 41.42892 28.70359 2841 ft 212 kts 182°
2026-04-26 20:59 41.41453 28.70391 2594 ft 199 kts 182°
2026-04-26 20:59 41.40106 28.70425 2288 ft 186 kts 183°
2026-04-26 20:59 41.38844 28.70454 2058 ft 180 kts 184°
2026-04-26 21:00 41.37586 28.70482 1835 ft 180 kts 184°
2026-04-26 21:00 41.36371 28.70511 1608 ft 167 kts 184°
2026-04-26 21:00 41.35247 28.70537 1379 ft 158 kts 184°
2026-04-26 21:00 41.34180 28.70560 1172 ft 149 kts 182°
2026-04-26 21:01 41.33169 28.70586 988 ft 143 kts 182°
2026-04-26 21:01 41.32179 28.70620 813 ft 142 kts 181°
2026-04-26 21:01 41.31199 28.70644 655 ft 139 kts 181°
2026-04-26 21:01 41.30238 28.70660 430 ft 139 kts 181°
2026-04-26 21:02 41.29269 28.70678 354 ft 135 kts 182°
2026-04-26 21:02 41.28435 28.70693 335 ft 99 kts 179°
2026-04-26 21:02 41.27915 28.70704 334 ft 43 kts 179°
2026-04-26 21:02 41.27704 28.70764 335 ft 19 kts 154°
2026-04-26 21:03 41.27630 28.70819 339 ft 2 kts 149°
2026-04-26 21:03 41.27629 28.70820 339 ft 0 kts 149°
2026-04-26 21:03 41.27573 28.70864 336 ft 27 kts 149°
2026-04-26 21:03 41.27448 28.71005 335 ft 16 kts 109°
2026-04-26 21:04 41.27444 28.71111 334 ft 9 kts 90°
2026-04-26 21:04 41.27444 28.71128 339 ft 0 kts 89°
2026-04-26 21:05 41.27444 28.71132 339 ft 3 kts 92°
2026-04-26 21:05 41.27412 28.71182 335 ft 8 kts 154°
2026-04-26 21:05 41.27366 28.71194 337 ft 1 kts 176°
2026-04-26 21:05 41.27365 28.71194 339 ft 0 kts 176°
2026-04-26 21:06 41.27356 28.71195 339 ft 2 kts 176°
2026-04-26 21:06 41.27336 28.71196 339 ft 5 kts 176°
2026-04-26 21:06 41.27288 28.71198 334 ft 8 kts 179°
2026-04-26 21:06 41.27223 28.71199 339 ft 9 kts 179°
2026-04-26 21:07 41.27204 28.71200 339 ft 0 kts 179°
2026-04-26 21:07 41.27192 28.71200 339 ft 6 kts 179°
2026-04-26 21:07 41.27124 28.71202 334 ft 0 kts 179°
2026-04-26 21:07 41.27120 28.71202 339 ft 6 kts 179°
2026-04-26 21:08 41.27013 28.71205 334 ft 18 kts 179°
2026-04-26 21:08 41.26899 28.71207 334 ft 15 kts 179°
2026-04-26 21:08 41.26806 28.71220 335 ft 13 kts 149°
2026-04-26 21:08 41.26784 28.71328 334 ft 13 kts 90°
2026-04-26 21:09 41.26785 28.71445 336 ft 12 kts 89°
2026-04-26 21:09 41.26786 28.71558 334 ft 12 kts 89°
2026-04-26 21:09 41.26788 28.71677 339 ft 13 kts 89°
2026-04-26 21:09 41.26789 28.71800 339 ft 13 kts 89°
2026-04-26 21:10 41.26791 28.71919 336 ft 13 kts 89°
2026-04-26 21:10 41.26792 28.72044 335 ft 14 kts 89°
2026-04-26 21:10 41.26765 28.72155 335 ft 11 kts 152°
2026-04-26 21:10 41.26710 28.72233 336 ft 14 kts 97°
2026-04-26 21:11 41.26709 28.72374 336 ft 17 kts 89°
2026-04-26 21:11 41.26711 28.72546 335 ft 20 kts 89°
2026-04-26 21:11 41.26714 28.72746 334 ft 23 kts 89°
2026-04-26 21:11 41.26716 28.72926 339 ft 16 kts 89°
2026-04-26 21:12 41.26732 28.73082 335 ft 17 kts 51°
2026-04-26 21:12 41.26840 28.73111 335 ft 14 kts 20°
2026-04-26 21:12 41.26866 28.73216 336 ft 14 kts 88°
2026-04-26 21:12 41.26869 28.73362 335 ft 18 kts 89°
2026-04-26 21:13 41.26871 28.73539 339 ft 20 kts 89°
2026-04-26 21:13 41.26874 28.73738 335 ft 22 kts 89°
2026-04-26 21:13 41.26843 28.73864 334 ft 11 kts 161°
2026-04-26 21:13 41.26751 28.73874 337 ft 15 kts 179°
2026-04-26 21:14 41.26637 28.73877 339 ft 18 kts 179°
2026-04-26 21:14 41.26567 28.73945 335 ft 14 kts 98°
2026-04-26 21:14 41.26530 28.74018 339 ft 10 kts 161°
2026-04-26 21:14 41.26478 28.74058 335 ft 9 kts 113°
2026-04-26 21:15 41.26476 28.74122 339 ft 3 kts 90°
2026-04-26 21:15 41.26476 28.74133 339 ft 0 kts 90°